Nausori, Fiji

8:21 AM FJST on December 03, 2016 (GMT +1300)
Nausori International

Weather History for NFNA - May, 2014

Change the Weather History Date:

Friday, May 16, 2014

  Actual Average Record
Temperature  
Mean Temperature 76 °F -  
Max Temperature 80 °F - - ()
Min Temperature 72 °F - - ()
Cooling Degree Days 11    
Growing Degree Days 26 (Base 50)    
Moisture  
Dew Point 75 °F    
Average Humidity 92    
Maximum Humidity 100    
Minimum Humidity 83    
Precipitation  
Precipitation 0.35 in - - ()
Sea Level Pressure  
Sea Level Pressure 29.86 in    
Wind  
Wind Speed 4 mph ()    
Max Wind Speed 9 mph    
Max Gust Speed -    
Visibility 8.1 miles    
Events Rain    
T = Trace of Precipitation, MM = Missing Value Source: Averaged Metar Reports

Daily Weather History Graph

Daily Weather History Graph

Search for Another Location

Airport or City:

Trip Planner

Search our weather history database for the weather conditions in past years. The results will help you decide how hot, cold, wet, or windy it might be!

Date:

Astronomy

May. 16, 2014 Rise Set
Actual Time 6:24 AM FJT 5:39 PM FJT
Civil Twilight 6:01 AM FJT 6:02 PM FJT
Nautical Twilight 5:34 AM FJT 6:29 PM FJT
Astronomical Twilight 5:08 AM FJT 6:55 PM FJT
Moon 7:01 PM FJT (5/16) 7:23 AM FJT (5/16)
Length of Visible Light 12h 01m
Length of Day
11h 15m
Full, 98% of the Moon is Illuminated
May 16
Full
May 22
Last Quarter
May 29
New
Jun 6
First Quarter
Jun 13
Full

Hourly Weather History & Observations

Time (FJT) Temp. Heat Index Dew Point Humidity Pressure Visibility Wind Dir Wind Speed Gust Speed Precip Events Conditions
12:00 AM 78 °F - 75 °F 88% 29.89 in 12 mi ESE 9.2 mph - - Rain Light Rain Showers
12:00 AM 77.0 °F - 75.2 °F 94% 29.89 in 6.2 mi ESE 9.2 mph - N/A Rain Light Rain Showers
1:00 AM 77.0 °F - 75.2 °F 94% 29.86 in 6.2 mi ESE 4.6 mph - N/A   Mostly Cloudy
2:00 AM 77.0 °F - 75.2 °F 94% 29.86 in 6.2 mi ESE 6.9 mph - N/A   Mostly Cloudy
3:00 AM 77 °F - 76 °F 94% 29.88 in 12 mi WNW 4.6 mph - - Rain Light Rain Showers
3:00 AM 77.0 °F - 75.2 °F 94% 29.86 in 6.2 mi WNW 4.6 mph - N/A Rain Light Rain Showers
4:00 AM 75.2 °F - 71.6 °F 89% 29.83 in 6.2 mi Calm Calm - N/A   Mostly Cloudy
5:00 AM 75.2 °F - 73.4 °F 94% 29.86 in 18.6 mi Calm Calm - N/A Rain Light Rain Showers
6:00 AM 74 °F - 73 °F 95% 29.86 in 12 mi Calm Calm - - Rain Light Rain Showers
6:00 AM 73.4 °F - 73.4 °F 100% 29.86 in 24.9 mi Calm Calm - N/A   Mostly Cloudy
7:00 AM 73.4 °F - 73.4 °F 100% 29.86 in 6.2 mi Calm Calm - N/A   Mostly Cloudy
8:00 AM 77.0 °F - 75.2 °F 94% 29.89 in 31.1 mi Calm Calm - N/A   Mostly Cloudy
9:00 AM 78 °F - 75 °F 89% 29.91 in 31 mi NW 3.5 mph - -   Partly Cloudy
9:00 AM 78.8 °F - 75.2 °F 89% 29.89 in 31.1 mi NW 3.5 mph - N/A   Mostly Cloudy
10:00 AM 78.8 °F - 73.4 °F 83% 29.92 in 31.1 mi WNW 3.5 mph - N/A   Mostly Cloudy
11:00 AM 80.6 °F 86.2 °F 75.2 °F 84% 29.89 in 31.1 mi Calm Calm - N/A   Mostly Cloudy
12:00 PM 78 °F - 77 °F 95% 29.89 in 12 mi WNW 3.5 mph - - Rain Light Rain Showers
12:00 PM 77.0 °F - 77.0 °F 100% 29.89 in 24.9 mi WNW 3.5 mph - N/A Rain Light Rain Showers
1:00 PM 78.8 °F - 77.0 °F 94% 29.86 in 24.9 mi Calm Calm - N/A Rain Light Rain
2:00 PM 80.6 °F 86.2 °F 75.2 °F 84% 29.83 in 24.9 mi Calm Calm - N/A   Mostly Cloudy
3:00 PM 78 °F - 75 °F 88% 29.83 in 12 mi East 4.6 mph - - Rain Light Rain
3:00 PM 77.0 °F - 75.2 °F 94% 29.83 in 24.9 mi East 4.6 mph - N/A Rain Light Rain
4:00 PM 77.0 °F - 75.2 °F 94% 29.83 in 6.2 mi ESE 3.5 mph - N/A Rain Light Rain
5:00 PM 77.0 °F - 75.2 °F 94% 29.83 in 6.2 mi SE 4.6 mph - N/A Rain Light Rain
6:00 PM 76 °F - 75 °F 94% 29.84 in 2 mi ESE 5.8 mph - - Rain Light Rain
6:00 PM 77.0 °F - 75.2 °F 94% 29.83 in 5.6 mi ESE 5.8 mph - N/A Rain Light Rain
7:00 PM 77.0 °F - 73.4 °F 89% 29.83 in 5.6 mi East 6.9 mph - N/A Rain Light Rain
8:00 PM 77.0 °F - 75.2 °F 94% 29.86 in 5.6 mi East 5.8 mph - N/A Rain Light Rain
9:00 PM 76 °F - 74 °F 91% 29.87 in 6 mi East 5.8 mph - - Rain Light Rain
9:00 PM 77.0 °F - 73.4 °F 89% 29.86 in 6.2 mi East 5.8 mph - N/A Rain Light Rain
10:00 PM 77.0 °F - 75.2 °F 94% 29.83 in 12.4 mi East 8.1 mph - N/A   Overcast
11:00 PM 77.0 °F - 75.2 °F 94% 29.83 in 6.2 mi NE 3.5 mph - N/A   Mostly Cloudy